{"data":{"norad_id":68601,"intl_designator":"2026-072AE","name":"KUIPER-00320","alt_names":[],"object_type":"PAYLOAD","status":"ACTIVE","operator":null,"country":"US","launch_date":"2026-04-04","launch_site_code":"AFETR","launch_vehicle":null,"mission":null,"orbit_class":"UNKNOWN","rcs_meters":null,"size_class":null,"mass_kg":null,"dimensions":null,"purposes":[],"wikipedia_slug":null,"has_3d_model":false,"image_url":null,"decayed_at":null,"tle_current":{"epoch":"2026-05-25T02:46:01.284096Z","epoch_age_seconds":68251,"freshness":"FRESH","line1":"1 68601U 26072AE  26145.11529264  .00030281  00000+0  85115-3 0  9992","line2":"2 68601  51.8629 288.9705 0011728 298.1695  61.8106 15.36192886  7820","mean_motion":15.36192886,"eccentricity":0.0011728,"inclination_deg":51.8629,"raan_deg":288.9705,"arg_perigee_deg":298.1695,"mean_anomaly_deg":61.8106,"bstar":0.00085115,"rev_number":782,"period_min":93.73822865106,"perigee_km":449.36289472127,"apogee_km":465.39628243143,"semimajor_km":6835.5165885764,"source":"CELESTRAK","updated_at":"2026-05-25T13:38:07.955790Z"}}}